Regional Weather Roundup
Issued by NWS

Home | Current Version | Previous Version | Graphics & Text | Print | Product List | Glossary On
Versions: 1 2 3 4 5 6 7 8 9 10 11 12 13 14 15 16 17 18 19 20 21 22 23 24 25 26 27 28 29 30 31 32 33 34 35 36 37 38 39 40 41 42 43 44 45 46 47 48 49 50
000
ASUS43 KLOT 100500
RWRIL

ILLINOIS REGIONAL WEATHER ROUNDUP
NATIONAL WEATHER SERVICE CHICAGO/ROMEOVILLE IL
1200 AM CDT THU JUL 10 2014

NOTE: "FAIR" INDICATES FEW OR NO CLOUDS BELOW 12,000 FEET WITH NO
SIGNIFICANT WEATHER AND/OR OBSTRUCTIONS TO VISIBILITY.

* THESE STATIONS ARE NOT UNDER NWS QUALITY CONTROL. THEY ALSO MAY NOT
  REPORT WEATHER SUCH AS PRECIPITATION OR FOG.

ILZ001-002-007-009-015-016-024-100600-
NORTHWEST ILLINOIS

CITY           SKY/WX    TMP DP  RH WIND       PRES   REMARKS
MOLINE         NOT AVBL
STERLING*      CLEAR     59  54  82 CALM      30.08R
$$

ILZ003-004-008-010-011-017-018-100600-
NORTH CENTRAL ILLINOIS

CITY           SKY/WX    TMP DP  RH WIND       PRES   REMARKS
ROCKFORD       CLEAR     60  55  83 CALM      30.10R
$$

ILZ005-006-012>014-019>023-100600-
NORTHEAST ILLINOIS

CITY           SKY/WX    TMP DP  RH WIND       PRES   REMARKS
CHICAGO-OHARE  CLEAR     65  54  67 CALM      30.06R
CHICAGO-MIDWAY CLEAR     68  60  75 SE3       30.06R
AURORA         CLEAR     57  54  89 CALM      30.08R
WAUKEGAN       CLEAR     56  55  97 CALM      30.06R
DUPAGE AIRPORT CLEAR     61  53  75 CALM      30.07R
WHEELING       NOT AVBL
NORTHERLY ISL    N/A     63  60  90 SE1         N/A
$$

LMZ740>746-100600-
SOUTHERN LAKE MICHIGAN

STATION/POSITION SKY/WX   TEMP    WIND        PRES    VSBY  WAVE
                          AIR SEA DIR/SP/G                  HT/PER
                          (F)     (DEG/KT/KT) (MB)    (MI)  (FT/S)
SOUTHERN BUOY              58 56  360/  2/  2 1017.9R         0
WAUKEGAN HARBOR            61        CALM     1019.3S
HARRISON CRIB              66     100/  3/  3   N/A
BURNHAM HARBOR             63      CALM  /  2   N/A
CALUMET HARBOR             67     100/  3/  4 1018.7R
MICHIGAN CITY              66      70/  4/  5   N/A
$$

ILZ025>027-034>036-040-047-049-050-058-095>099-100600-
WEST-CENTRAL ILLINOIS

CITY           SKY/WX    TMP DP  RH WIND       PRES   REMARKS
QUINCY         PTCLDY    67  57  70 SE3       30.08R
$$

ILZ028>032-037-038-041>044-048-051>054-059>061-100600-
CENTRAL ILLINOIS

CITY           SKY/WX    TMP DP  RH WIND       PRES   REMARKS
DECATUR        CLEAR     64  58  80 N6        30.07R
PEORIA         CLEAR     65  58  78 CALM      30.08R
SPRINGFIELD    CLEAR     61  58  90 CALM      30.08R
TAYLORVILLE    NOT AVBL
$$

ILZ033-039-045-046-055>057-062-063-100600-
EAST-CENTRAL ILLINOIS

CITY           SKY/WX    TMP DP  RH WIND       PRES   REMARKS
MATTOON        CLEAR     64  58  80 CALM      30.05R
$$

ILZ079-100>102-100600-
SOUTHWEST ILLINOIS

CITY           SKY/WX    TMP DP  RH WIND       PRES   REMARKS
BELLEVILLE     CLEAR     66  62  86 NW3       30.07R
$$

ILZ064>066-069>071-074>076-080>082-084>086-088>090-092>094-100600-
SOUTH-CENTRAL ILLINOIS

CITY           SKY/WX    TMP DP  RH WIND       PRES   REMARKS
CARBONDALE     NOT AVBL
MT. VERNON     CLEAR     66  57  72 N5        30.07R
$$

ILZ067-068-072-073-078-083-087-091-100600-
SOUTHEAST ILLINOIS

CITY           SKY/WX    TMP DP  RH WIND       PRES   REMARKS
$$

ABBREVIATIONS USED IN REMARKS
   TC - TEMPERATURE IN CELSIUS
  WCI - WIND CHILL INDEX
   HX - HEAT INDEX
  VSB - VISIBILITY
$$




USA.gov is the U.S. government's official web portal to all federal, state and local government web resources and services.